www.pogodaiklimat.ru

Погода и климат >> Архив погоды >> Индонезия >> Сентани


ПОГОДА в Сентани

  • Прогноз погоды в Сентани
  • Монитор погоды в Сентани

АРХИВ ПОГОДЫ в Сентани

Время (UTC), дата Ветер
(напр.,м/с)
 
Видим.   Явления Облачность Т
(С)
Тd
(С)
f
(%)
Тe
(С)
Тes
(С)
Комфортность P
(гПа)
Po
(гПа)
Тmin
(С)
Tmax
(С)
R
(мм)
R24
(мм)
S
(см)
21 16.01 ЮЗ 3 10 км 8/1 300 м
[Frnb Ac As Cs]
+26.0 +22.7 82 +34 +34 очень
душно
1005.4 995.9
00 17.01 ЮЗ 3 10 км 9/4 400 м
[Cu med, cong Ac trans Cs]
+29.0 +24.3 76 +41 +45 опасность
перегрева
1007.4 997.9 +25.3 4
03 17.01 З 4 5000 м слаб. дождь 10/6 400 м
[Cu med, cong As op Ci sp]
+27.6 +23.8 80 +38 +41 очень
душно
1005.4 995.9
06 17.01 З 5 10 км в посл. час дождь 9/6 400 м
[Cu med, cong Ac As Ci sp]
+27.1 +23.8 82 +37 +38 очень
душно
1003.8 994.3 4
09 17.01 З 6 10 км {дождь} 9/5 400 м
[Cu med, cong Ac As Ci sp]
+26.3 +23.8 86 +36 +36 очень
душно
1005.1 995.6 2
12 17.01 штиль 0 10 км {дождь} 8/3 400 м
[Cu med, cong Ac As Ci sp]
+25.1 +23.5 91 +34 +34 очень
душно
1007.2 997.6 +31.1 2
15 17.01 З 3 10 км 9/4 400 м
[Cu med, cong Ac trans Ci sp]
+26.5 +23.4 83 +36 +36 очень
душно
1006.6 997.0
18 17.01 штиль 0 10 км 9/4 400 м
[Cu med, cong Ac trans Ci sp]
+25.8 +23.9 89 +35 +35 очень
душно
1005.4 995.9
21 17.01 З 2 10 км 8/3 300 м
[Frnb Ac trans Ci sp]
+25.0 +23.4 91 +34 +34 очень
душно
1005.7 996.2 1
00 18.01 В 1 10 км 6/1 400 м
[Cu Sc Ac trans Ci fib]
+30.1 +26.0 79 +45 +55 опасность
перегрева
1007.0 997.5 +24.7 1
03 18.01 СЗ 1 10 км в посл. час дождь 9/4 400 м
[Cb cap Ac trans Ci sp]
+32.0 +24.1 63 +44 +52 опасность
перегрева
1005.7 996.1 0.0
06 18.01 ЮЗ 2 10 км 8/3 400 м
[Cu med, cong Ac trans Ci sp]
+33.5 +22.9 54 +44 +47 опасность
перегрева
1002.8 993.3 0.0
09 18.01 З 3 10 км 8/4 330 м
[Cb cap Ac trans Ci sp]
+27.8 +24.2 81 +39 +39 очень
душно
1005.4 995.9
12 18.01 СЗ 2 10 км гроза без осадков 9/4 330 м
[Cb cap Ac trans Ci sp]
+27.2 +24.7 86 +39 +39 очень
душно
1007.7 998.1 +34.0
15 18.01 Ю 2 5000 м гроза, ливневой дождь 9/4 330 м
[Cb cap As op]
+25.9 +24.3 91 +36 +36 очень
душно
1007.8 998.3 4
18 18.01 ЮЗ 1 10 км зарница {гроза, дождь} 9/4 300 м
[Cb cap Ac As Cs]
+25.0 +23.6 92 +34 +34 очень
душно
1006.0 996.5 10
21 18.01 Ю 1 10 км 9/3 300 м
[Frnb Ac trans Ci sp]
+24.6 +23.2 92 +33 +33 очень
душно
1007.7 998.1
00 19.01 В 1 10 км 9/3 360 м
[Cu med, cong Ac trans Cs]
+30.4 +22.2 62 +39 +45 очень
душно
1008.8 999.2 +24.5 14
03 19.01 В 2 10 км 8/4 400 м
[Cu med, cong Ac trans Ci fib]
+32.2 +23.2 59 +43 +51 опасность
перегрева
1006.3 996.7
06 19.01 З 3 10 км 9/4 330 м
[Cb calv Ac trans Cs]
+30.3 +24.9 73 +43 +46 опасность
перегрева
1004.9 995.4
09 19.01 Ю 2 5000 м гроза без осадков 9/4 330 м
[Cb cap Ac trans Cs]
+28.3 +24.7 81 +40 +40 очень
душно
1006.6 997.1
12 19.01 штиль 0 10 км {гроза} 9/3 400 м
[Cu med, cong Ac trans Ci sp]
+26.3 +23.4 84 +36 +36 очень
душно
1008.2 998.7 +33.0
15 19.01 штиль 0 10 км 9/3 400 м
[Cu med, cong Ac trans Ci sp]
+26.2 +23.7 86 +36 +36 очень
душно
1008.2 998.6
18 19.01 штиль 0 10 км 9/3 400 м
[Cu med, cong Ac trans Ci sp]
+25.7 +23.0 85 +34 +34 очень
душно
1006.4 996.9
21 19.01 штиль 0 10 км 8/3 300 м
[Frnb Ac trans Ci sp]
+25.6 +23.6 89 +35 +35 очень
душно
1006.4 996.8
00 20.01 ЮВ 2 10 км 8/3 420 м
[Cu hum Ac trans Ci sp]
+30.1 +24.7 73 +43 +48 опасность
перегрева
1008.0 998.4 +25.3
03 20.01 З 3 6000 м осадки на расстоянии 9/6 360 м
[Cb calv Ac As Ci fib]
+30.5 +23.9 68 +42 +46 опасность
перегрева
1006.8 997.3
06 20.01 СЗ 3 10 км в посл. час дождь {гроза} 10/3 360 м
[Cu med, cong Ac As Ci sp]
+28.4 +24.2 78 +40 +42 очень
душно
1005.4 995.9 0.9
09 20.01 штиль 0 10 км 9/3 400 м
[Cu med, cong Ac trans Cs]
+27.0 +22.4 76 +35 +35 очень
душно
1006.8 997.2
12 20.01 З 3 8000 м слаб. дождь 9/3 400 м
[Cu med, cong As trans Cs]
+25.4 +23.5 89 +34 +34 очень
душно
1009.5 999.9 +32.4 1
15 20.01 штиль 0 8000 м в посл. час дождь 9/4 400 м
[Cu med, cong Ac As Cs]
+25.0 +23.2 90 +33 +33 очень
душно
1008.6 999.0 1
18 20.01 З 1 10 км 9/4 300 м
[Frnb Ac As Cs]
+26.0 +23.1 84 +35 +35 очень
душно
1007.3 997.7 1
21 20.01 штиль 0 10 км 9/3 300 м
[Frnb Ac As Cs]
+25.0 +23.4 91 +34 +34 очень
душно
1008.3 998.7
00 21.01 З 2 10 км 6/1 400 м
[Cu med, cong Ac trans Ci fib]
+29.1 +23.7 73 +40 +48 очень
душно
1009.1 999.6 +24.3 4
03 21.01 В 2 10 км 8/3 400 м
[Cu med, cong Ac trans Ci fib]
+30.7 +23.9 67 +42 +52 опасность
перегрева
1007.3 997.7
06 21.01 З 3 10 км 8/4 400 м
[Cu med, cong Ac trans Ci fib]
+29.1 +23.7 73 +40 +43 очень
душно
1004.9 995.4
09 21.01 З 4 10 км 9/3 400 м
[Cu Sc Ac trans Cs]
+27.1 +22.9 78 +36 +36 очень
душно
1006.3 996.8
12 21.01 СЗ 2 10 км 8/3 400 м
[Cu Sc Ac trans Ci sp]
+26.3 +23.0 82 +35 +35 очень
душно
1009.0 999.4 +31.7
15 21.01 штиль 0 10 км 9/3 400 м
[Cu Sc Ac trans Ci sp]
+24.8 +22.7 88 +33 +33 очень
душно
1008.7 999.1
18 21.01 штиль 0 10 км 10/4 300 м
[Frnb Ac trans Cs]
+24.6 +23.0 91 +33 +33 очень
душно
1007.5 997.9
21 21.01 С 1 10 км 9/3 300 м
[Frnb Ac trans Ci sp]
+24.1 +22.0 88 +31 +31 очень
душно
1008.2 998.6
00 22.01 ЮВ 2 10 км 8/4 400 м
[Cu Sc Ac trans Ci sp]
+29.0 +23.6 73 +40 +45 очень
душно
1008.2 998.6 +24.0
03 22.01 З 5 10 км 6/4 400 м
[Cu med, cong Ac trans Ci sp]
+33.1 +22.6 54 +43 +48 опасность
перегрева
1006.4 996.8
06 22.01 СЗ 7 10 км 4/3 400 м
[Cu med, cong Ac trans Ci fib]
+33.0 +21.1 50 +41 +42 опасность
перегрева
1004.0 994.4
09 22.01 З 5 10 км 8/3 400 м
[Cu med, cong Ac trans Ci fib]
+28.9 +21.2 63 +36 +36 очень
душно
1005.3 995.8
12 22.01 штиль 0 10 км 8/3 400 м
[Cu med, cong Ac trans Ci fib]
+26.7 +21.9 75 +34 +34 очень
душно
1007.9 998.3 +33.7
15 22.01 штиль 0 10 км 9/3 400 м
[Cu med, cong Ac trans Ci fib]
+26.2 +21.8 77 +34 +34 очень
душно
1007.9 998.3
18 22.01 штиль 0 10 км 8/3 330 м
[Frnb Ac trans Ci sp]
+25.3 +22.4 84 +33 +33 очень
душно
1006.6 997.0
21 22.01 С 1 10 км 8/3 300 м
[Frnb Ac trans Ci sp]
+24.7 +22.0 85 +32 +32 очень
душно
1008.0 998.4
00 23.01 З 2 10 км 9/3 400 м
[Cu med, cong Ac As Ci sp]
+29.1 +23.7 73 +40 +45 очень
душно
1009.2 999.6 +24.7
03 23.01 З 4 10 км 9/3 400 м
[Cu med, cong Ac As Ci sp]
+31.2 +22.3 59 +40 +46 очень
душно
1007.1 997.6
06 23.01 З 5 10 км 9/3 400 м
[Cu med, cong Ac As Ci sp]
+31.6 +22.3 58 +41 +43 опасность
перегрева
1005.1 995.6
09 23.01 З 4 10 км 8/3 400 м
[Cu med, cong Ac As Ci sp]
+27.8 +21.8 70 +36 +36 очень
душно
1006.5 997.0
12 23.01 штиль 0 10 км 8/3 400 м
[Cu Sc Ac trans Ci sp]
+25.3 +22.2 83 +33 +33 очень
душно
1008.6 999.0 +32.3
15 23.01 СВ 1 10 км 6/3 400 м
[Cu med, cong Ac trans Ci sp]
+24.6 +21.7 84 +31 +31 очень
душно
1009.0 999.4
18 23.01 С 1 10 км 9/3 300 м
[Frnb Ac trans Ci sp]
+24.3 +22.0 87 +31 +31 очень
душно
1007.8 998.2

 

Местоположение метеостанции Сентани (Индонезия): широта -2.58 долгота 140.52 высота над уровнем моря 99 м.

В архиве по умолчанию представлена погода в Сентани за последнюю неделю. Архивные данные за месяц целиком и за предыдущие месяцы, начиная с января 2011 года, Вы можете получить, выбрав интересующий диапазон дат из раскрывающегося списка и нажав кнопку "Ввод!".


*Определитесь, кто Вы:
робот инопланетянин человек

Внимание! Время в таблицах - всемирное. Для получения местного времени необходимо прибавить поправку, которая равна 7 ч.

Смотрите также архив погоды в соседних городах и на ближайших метеорологических станциях:

Погода в Джаяпуре (Индонезия) (21 км)
Погода в Сарми (Индонезия) (218 км)
Погода в Вамене (Индонезия) (241 км)
Погода в Танах Мерах (Индонезия) (392 км)
Погода в Коконао (Индонезия) (434 км)
Погода в Серуи (Индонезия) (483 км)
Погода в Энаротали (Индонезия) (484 км)
Погода в Биаке (Индонезия) (514 км)
Погода в Набире (Индонезия) (564 км)
Погода в Мерауке (Индонезия) (655 км)

Пояснения к столбцам:

Ветер - указаны скорость ветра в м/с - средняя за 10 мин, порывы в срок и между сроками (в фигурных скобках) и направление, откуда дует ветер: С - северный, СВ - северо-восточный, В - восточный, ЮВ - юго-восточный, Ю - южный, ЮЗ - юго-западный, З - западный, СЗ - северо-западный.
Видимость - горизонтальная дальность видимости в метрах или километрах. При видимости от 1 до 10 км при отсутствии осадков обычно наблюдается дымка, при ухудшении видимости до 1 км и менее - туман. В сухую погоду видимость может ухудшаться дымом, пылью или мглою.
Явления - указаны атмосферные явления, наблюдавшиеся в срок или в последний час перед сроком; фигурными скобками обозначены явления, наблюдавшиеся между сроками (за 1-3 часа до срока); квадратными скобками обозначены град или гололедные отложения с указанием их диаметра в мм.
Облачность - указаны через наклонную черту общая и нижняя облачность в баллах и высота нижней границы облаков в метрах; квадратными скобками обозначены формы облаков: Ci - перистые, Cs - перисто-слоистые, Cc - перисто-кучевые, Ac - высококучевые, As - высокослоистые, Sc - слоисто-кучевые, Ns - слоисто-дождевые, Cu - кучевые, Cb - кучево-дождевые. Подробнее классификацию облаков см. в Атласе облаков (PDF).
T - Температура воздуха - температура, измеренная на высоте 2 м над землей.
Td - Температура точки росы - температура, при понижении до которой содержащийся в воздухе водяной пар достигнет насыщения.
f - Относительная влажность воздуха - влажноcть воздуха, измеренная на высоте 2 м над землей.
Te - Эффективная температура - температура, которую ощущает одетый по сезону человек в тени. Характеристика душности погоды. При расчете учитывается влияние влажности воздуха и скорости ветра на теплоощущения человека.
Tes - Эффективная температура на солнце - температура, которую ощущает человек, с поправкой на солнечный нагрев. Характеристика знойности погоды. Зависит от высоты солнца над горизонтом, облачности и скорости ветра. Ночью, в пасмурную погоду, а также при ветре 12 м/с и более поправка равна нулю.
P - Атмосферное давление - приведенное к уровню моря атмосферное давление.
Po - Атмосферное давление - измеренное на уровне метеостанции атмосферное давление.
Tmin - Минимальная температура - минимум температуры воздуха на высоте 2 м над землей.
Tmax - Максимальная температура - максимум температуры воздуха на высоте 2 м над землей.
R - Количество осадков - Количество выпавших осадков за период времени, мм. При наведении курсора мыши на число - период времени, за который выпало указанное количество осадков.
R24 - Количество осадков - Количество выпавших осадков за 24 часа, мм.
S - Снежный покров - Высота снежного покрова, см. При наведении курсора мыши на число - состояние снежного покрова и степень покрытия местности в баллах.